When you browse on this site, cookies collect data to enhance your experience and personalize the content and advertising you see.
Visit our Privacy Policy to learn more. By continuing to use the site, you agree to this use of cookies and data.
  • în România
  • Lista ţărilor
  • Pe 7 zile
  • Temperatura apei
  • Meteo pe hartă
  • Widget-uri
  • user-avatar
    Intrare

    Meteo pe oră la Cabimas

    Astăzi, 7 Iunie, Duminică

    Timp Temperatura Precipitaţii Vânt Presiune Umiditate
    00:00 +28°C° 0.1 mm 3 m/s 759 mmHg 86%
    01:00 +28°C° 0.1 mm 2 m/s 759 mmHg 87%
    02:00 +27°C° 0.2 mm 2 m/s 758 mmHg 88%
    03:00 +27°C° 0.2 mm 2 m/s 758 mmHg 88%
    04:00 +27°C° 0.2 mm 1 m/s 758 mmHg 89%
    05:00 +28°C° 0.1 mm 1 m/s 759 mmHg 87%
    06:00 +28°C° 0.1 mm 1 m/s 759 mmHg 85%
    07:00 +29°C° 0.1 mm 1 m/s 759 mmHg 83%
    08:00 +30°C° 0.3 mm 1 m/s 759 mmHg 77%
    09:00 +32°C° 0.3 mm 1 m/s 759 mmHg 71%
    10:00 +34°C° 0.3 mm 2 m/s 759 mmHg 65%
    11:00 +35°C° 0 mm 2 m/s 759 mmHg 63%
    12:00 +36°C° 0 mm 2 m/s 758 mmHg 60%
    13:00 +36°C° 0 mm 2 m/s 757 mmHg 57%
    14:00 +36°C° 0 mm 2 m/s 756 mmHg 59%
    15:00 +34°C° 0 mm 1 m/s 756 mmHg 61%
    16:00 +34°C° 0 mm 1 m/s 755 mmHg 63%
    17:00 +32°C° 0.4 mm 2 m/s 756 mmHg 68%
    18:00 +31°C° 0.4 mm 2 m/s 756 mmHg 74%
    19:00 +29°C° 0.4 mm 2 m/s 756 mmHg 79%
    20:00 +29°C° 0.2 mm 3 m/s 757 mmHg 81%
    21:00 +29°C° 0.2 mm 3 m/s 757 mmHg 83%
    22:00 +29°C° 0.2 mm 3 m/s 758 mmHg 85%
    23:00 +29°C° 0.6 mm 3 m/s 758 mmHg 87%

    Mâine, 8 Iunie, Luni

    Timp Temperatura Precipitaţii Vânt Presiune Umiditate
    00:00 +28°C° 0.6 mm 3 m/s 757 mmHg 89%
    01:00 +28°C° 0.6 mm 3 m/s 757 mmHg 90%
    02:00 +28°C° 0.7 mm 3 m/s 757 mmHg 91%
    03:00 +28°C° 0.7 mm 2 m/s 757 mmHg 91%
    04:00 +28°C° 0.7 mm 2 m/s 757 mmHg 91%
    05:00 +28°C° 0.8 mm 2 m/s 757 mmHg 90%
    06:00 +28°C° 0.8 mm 2 m/s 758 mmHg 88%
    07:00 +29°C° 0.8 mm 2 m/s 758 mmHg 87%
    08:00 +30°C° 1 mm 2 m/s 758 mmHg 82%
    09:00 +31°C° 1 mm 2 m/s 758 mmHg 78%
    10:00 +34°C° 1 mm 2 m/s 758 mmHg 74%
    11:00 +34°C° 0 mm 2 m/s 758 mmHg 68%
    12:00 +35°C° 0 mm 2 m/s 757 mmHg 63%
    13:00 +36°C° 0 mm 2 m/s 756 mmHg 57%
    14:00 +36°C° 0 mm 2 m/s 756 mmHg 59%
    15:00 +35°C° 0 mm 2 m/s 755 mmHg 61%
    16:00 +35°C° 0 mm 2 m/s 755 mmHg 63%
    17:00 +32°C° 0.7 mm 2 m/s 755 mmHg 70%
    18:00 +31°C° 0.7 mm 3 m/s 756 mmHg 77%
    19:00 +29°C° 0.7 mm 3 m/s 756 mmHg 85%
    20:00 +29°C° 0 mm 3 m/s 757 mmHg 86%
    21:00 +28°C° 0 mm 4 m/s 757 mmHg 88%
    22:00 +28°C° 0 mm 4 m/s 758 mmHg 89%
    23:00 +28°C° 0 mm 3 m/s 757 mmHg 90%

    Poimâine, 9 Iunie, Marţi

    Timp Temperatura Precipitaţii Vânt Presiune Umiditate
    00:00 +28°C° 0 mm 3 m/s 757 mmHg 91%
    01:00 +27°C° 0 mm 3 m/s 757 mmHg 91%
    02:00 +27°C° 1 mm 2 m/s 757 mmHg 92%
    03:00 +27°C° 1 mm 2 m/s 756 mmHg 92%
    04:00 +27°C° 1 mm 2 m/s 756 mmHg 92%
    05:00 +28°C° 0.9 mm 2 m/s 756 mmHg 90%
    06:00 +28°C° 0.9 mm 2 m/s 757 mmHg 88%
    07:00 +29°C° 0.9 mm 2 m/s 757 mmHg 86%
    08:00 +30°C° 0.4 mm 3 m/s 758 mmHg 80%
    09:00 +31°C° 0.4 mm 3 m/s 758 mmHg 73%
    10:00 +34°C° 0.4 mm 3 m/s 758 mmHg 67%
    11:00 +34°C° 0 mm 2 m/s 757 mmHg 64%
    12:00 +35°C° 0 mm 2 m/s 757 mmHg 62%
    13:00 +34°C° 0 mm 1 m/s 756 mmHg 59%
    14:00 +34°C° 0.1 mm 1 m/s 756 mmHg 60%
    15:00 +34°C° 0.1 mm 1 m/s 755 mmHg 61%
    16:00 +34°C° 0.1 mm 1 m/s 755 mmHg 62%
    17:00 +32°C° 0.8 mm 2 m/s 755 mmHg 70%
    18:00 +30°C° 0.8 mm 3 m/s 756 mmHg 78%
    19:00 +29°C° 0.8 mm 3 m/s 756 mmHg 87%
    20:00 +28°C° 3.8 mm 3 m/s 757 mmHg 88%
    21:00 +27°C° 3.8 mm 3 m/s 758 mmHg 89%
    22:00 +27°C° 3.8 mm 3 m/s 758 mmHg 90%
    23:00 +27°C° 1.1 mm 3 m/s 758 mmHg 91%

    10 Iunie, Miercuri

    Timp Temperatura Precipitaţii Vânt Presiune Umiditate
    00:00 +27°C° 1.1 mm 2 m/s 758 mmHg 91%
    01:00 +27°C° 1.1 mm 2 m/s 758 mmHg 92%
    02:00 +27°C° 0.9 mm 3 m/s 757 mmHg 92%
    03:00 +27°C° 0.9 mm 3 m/s 757 mmHg 92%
    04:00 +26°C° 0.9 mm 4 m/s 757 mmHg 93%
    05:00 +26°C° 0.4 mm 4 m/s 758 mmHg 93%
    06:00 +26°C° 0.4 mm 4 m/s 758 mmHg 94%
    07:00 +26°C° 0.4 mm 4 m/s 758 mmHg 94%
    08:00 +27°C° 0.2 mm 3 m/s 759 mmHg 94%
    09:00 +27°C° 0.2 mm 3 m/s 759 mmHg 93%
    10:00 +27°C° 0.2 mm 3 m/s 759 mmHg 93%
    11:00 +27°C° 0 mm 3 m/s 759 mmHg 91%
    12:00 +28°C° 0 mm 2 m/s 758 mmHg 89%
    13:00 +28°C° 0 mm 2 m/s 757 mmHg 87%
    14:00 +29°C° 0 mm 2 m/s 757 mmHg 84%
    15:00 +29°C° 0 mm 1 m/s 757 mmHg 81%
    16:00 +29°C° 0 mm 1 m/s 756 mmHg 78%
    17:00 +29°C° 0.2 mm 1 m/s 757 mmHg 81%
    18:00 +28°C° 0.2 mm 1 m/s 757 mmHg 84%
    19:00 +27°C° 0.2 mm 1 m/s 758 mmHg 87%
    20:00 +27°C° 0.8 mm 1 m/s 758 mmHg 88%
    21:00 +27°C° 0.8 mm 1 m/s 759 mmHg 89%
    22:00 +27°C° 0.8 mm 1 m/s 759 mmHg 89%
    23:00 +27°C° 0.1 mm 1 m/s 758 mmHg 90%

    11 Iunie, Joi

    Timp Temperatura Precipitaţii Vânt Presiune Umiditate
    00:00 +26°C° 0.1 mm 2 m/s 758 mmHg 90%
    01:00 +26°C° 0.1 mm 2 m/s 757 mmHg 90%
    02:00 +26°C° 0.4 mm 2 m/s 757 mmHg 90%
    03:00 +26°C° 0.4 mm 2 m/s 757 mmHg 91%
    04:00 +26°C° 0.4 mm 1 m/s 757 mmHg 91%
    05:00 +26°C° 0.3 mm 1 m/s 757 mmHg 90%
    06:00 +27°C° 0.3 mm 1 m/s 758 mmHg 90%
    07:00 +27°C° 0.3 mm 1 m/s 758 mmHg 90%
    08:00 +29°C° 0.2 mm 1 m/s 758 mmHg 83%
    09:00 +30°C° 0.2 mm 1 m/s 758 mmHg 76%
    10:00 +32°C° 0.2 mm 1 m/s 759 mmHg 70%
    11:00 +32°C° 0 mm 1 m/s 758 mmHg 67%
    12:00 +33°C° 0 mm 1 m/s 757 mmHg 64%
    13:00 +33°C° 0 mm 1 m/s 756 mmHg 61%
    14:00 +34°C° 0.2 mm 2 m/s 756 mmHg 63%
    15:00 +34°C° 0.2 mm 2 m/s 755 mmHg 66%
    16:00 +33°C° 0.2 mm 3 m/s 755 mmHg 68%
    17:00 +31°C° 0.2 mm 3 m/s 756 mmHg 73%
    18:00 +30°C° 0.2 mm 4 m/s 756 mmHg 78%
    19:00 +28°C° 0.2 mm 5 m/s 757 mmHg 82%
    20:00 +28°C° 0.3 mm 5 m/s 757 mmHg 85%
    21:00 +27°C° 0.3 mm 6 m/s 758 mmHg 87%
    22:00 +27°C° 0.3 mm 6 m/s 758 mmHg 89%
    23:00 +26°C° 0.3 mm 5 m/s 758 mmHg 90%

    12 Iunie, Vineri

    Timp Temperatura Precipitaţii Vânt Presiune Umiditate
    00:00 +26°C° 0.3 mm 4 m/s 758 mmHg 92%
    01:00 +26°C° 0.3 mm 3 m/s 757 mmHg 93%
    02:00 +26°C° 0.1 mm 2 m/s 757 mmHg 93%
    03:00 +26°C° 0.1 mm 1 m/s 757 mmHg 94%
    04:00 +26°C° 0.1 mm 1 m/s 757 mmHg 94%
    05:00 +26°C° 0 mm 1 m/s 757 mmHg 93%
    06:00 +26°C° 0 mm 1 m/s 758 mmHg 92%
    07:00 +27°C° 0 mm 1 m/s 758 mmHg 91%
    08:00 +28°C° 0.2 mm 1 m/s 758 mmHg 84%
    09:00 +30°C° 0.2 mm 2 m/s 758 mmHg 77%
    10:00 +31°C° 0.2 mm 2 m/s 759 mmHg 70%
    11:00 +31°C° 0.2 mm 2 m/s 758 mmHg 71%
    12:00 +31°C° 0.2 mm 2 m/s 757 mmHg 72%
    13:00 +31°C° 0.2 mm 2 m/s 757 mmHg 74%
    14:00 +31°C° 0.2 mm 2 m/s 756 mmHg 75%
    15:00 +31°C° 0.2 mm 2 m/s 756 mmHg 76%
    16:00 +31°C° 0.2 mm 2 m/s 755 mmHg 77%
    17:00 +30°C° 0.3 mm 2 m/s 756 mmHg 80%
    18:00 +29°C° 0.3 mm 1 m/s 756 mmHg 83%
    19:00 +26°C° 0.3 mm 0 m/s 757 mmHg 86%
    20:00 +27°C° 0.4 mm 1 m/s 757 mmHg 87%
    21:00 +27°C° 0.4 mm 1 m/s 758 mmHg 88%
    22:00 +27°C° 0.4 mm 2 m/s 758 mmHg 89%
    23:00 +27°C° 0.7 mm 2 m/s 758 mmHg 90%
    Arată mai mult